Regional Weather Roundup
Issued by NWS

Home | Current Version | Previous Version | Graphics & Text | Print | Product List | Glossary On
Versions: 1 2 3 4 5 6 7 8 9 10 11 12 13 14 15 16 17 18 19 20 21 22 23 24 25 26 27
000
ASUS45 KBOU 160310
RWRCO

WEATHER ROUNDUP FOR COLORADO
NATIONAL WEATHER SERVICE DENVER/BOULDER CO
800 PM MST FRI DEC 15 2017

NOTE: "FAIR" INDICATES FEW OR NO CLOUDS BELOW 12000 FEET WITH NO
SIGNIFICANT WEATHER AND/OR OBSTRUCTIONS TO VISIBILITY.

COZ001>005-013-030-031-160400-
...NORTHWEST COLORADO...

CITY           SKY/WX    TMP DP  RH WIND       PRES   REMARKS
CRAIG          FAIR      17  10  74 CALM      30.06F
HAYDEN         FAIR      26  14  60 E13       30.07F WCI  15
MEEKER         FAIR      26   6  42 CALM      30.06F
RABBIT EARS PA FAIR      27   1  33 SW7       30.10F WCI  19
STEAMBOAT SPGS FAIR      24  12  60 CALM      30.07F
WALDEN         FAIR      27   5  39 S10G16    30.03F WCI  17
$$

COZ006>008-011-160400-
...WEST CENTRAL VALLEYS...

CITY           SKY/WX    TMP DP  RH WIND       PRES   REMARKS
GRAND JUNCTION FAIR      27   7  42 VRB6      30.11F WCI  20
MONTROSE       FAIR      22   8  55 SE7       30.13F WCI  13
EAGLE          FAIR      18  11  74 E5        30.14F WCI  11
RIFLE          FAIR      25   6  44 SE6       30.12F WCI  18
DELTA          FAIR      29   3  32 CALM      30.11F
NUCLA          FAIR      30  -6  21 E12       30.14F WCI  21
$$

COZ017>023-064>068-160400-
...SOUTHWEST COLORADO...

CITY           SKY/WX    TMP DP  RH WIND       PRES   REMARKS
DURANGO        FAIR      26  14  60 N7        30.14F WCI  18
CORTEZ         FAIR      22   3  44 NE9       30.15F WCI  12
PAGOSA SPRINGS FAIR      25  10  51 CALM      30.15F
TELLURIDE      FAIR      30  -7  20 SE6       30.17F WCI  24
WOLF CREEK PAS FAIR      30   1  29 NW6       30.27S WCI  24
$$

COZ009-010-012-014-032>034-037-058>063-160400-
...CENTRAL COLORADO...

CITY           SKY/WX    TMP DP  RH WIND       PRES   REMARKS
ASPEN          FAIR      19   8  62 S6        30.09F WCI  11
BUENA VISTA    FAIR      23  10  57 CALM      30.07S
COPPER MTN     NOT AVBL
BERTHOUD PASS  FAIR      21  10  63 NW36      30.10F WCI   2
COTTONWOOD PAS FAIR      41   3  20 NW8       30.09F
GUNNISON       FAIR      19   6  57 MISG      30.15F
KREMMLING      FAIR      16   9  73 CALM      30.12F
LEADVILLE      FAIR      21   0  39 CALM      30.10F
MONARCH PASS   FAIR      21  -4  33 W32G39    30.25S WCI   2
SALIDA         FAIR      39   3  21 SW12G17   30.12S
SUNLIGHT       FAIR      25  -4  28 SW14G20   30.18F WCI  13
WILKERSON PASS FAIR      30   1  29 NW12G21   30.13S WCI  21
$$

COZ069>075-160400-
...SAN LUIS VALLEY/SANGRE DE CRISTO MOUNTAINS...

CITY           SKY/WX    TMP DP  RH WIND       PRES   REMARKS
ALAMOSA        FAIR      13   7  77 W7        30.13F WCI   3
DEL NORTE      FAIR      17   8  68 W7        30.15S WCI   7
LA VETA PASS   FAIR      25   0  33 SW30        N/A  WCI   8
SAGUACHE       FAIR      18   9  68 N7        30.15F WCI   8
$$

COZ035-036-038>040-160400-
...NORTHERN COLORADO FRONT RANGE...

CITY           SKY/WX    TMP DP  RH WIND       PRES   REMARKS
DENVER INTL AP FAIR      41  12  30 SW10      29.85F
DMNS CITY PARK NOT AVBL
AURORA         MOCLDY    41  13  32 S12       29.87S
FRONT RANGE AP PTCLDY    46  16  29 S10G18    29.87S
ERIE MUNI ARPT FAIR      36   8  31 CALM      29.90S
BOULDER MUN AP FAIR      54   7  15 SW3       29.84F
CENTENNIAL     FAIR      38  17  42 SE9       29.88S
BROOMFIELD     PTCLDY    50   3  14 CALM      29.87R
FORT COLLINS   FAIR      42  20  41 NE6       29.84F
LONGMONT       FAIR      36  19  50 CALM      29.86S
$$

COZ041-046-047-076>085-087-088-160400-
...PIKES PEAK/PALMER DIVIDE AND SOUTHERN FOOTHILLS...

CITY           SKY/WX    TMP DP  RH WIND       PRES   REMARKS
COLO. SPRINGS  FAIR      34   8  33 NE10      29.90F WCI  26
A. F. ACADEMY  FAIR      31   8  38 N10       29.92F WCI  22
SCHRIEVER AFB  FAIR      40  11  30 N6        29.90F
CHEYENNE MTN   FAIR      44  12  27 CALM      29.87F
ELLICOTT         N/A    N/A N/A N/A S8        29.89F
FALCON         FAIR      31   7  35 NW6       29.94F WCI  26
FORT CARSON    FAIR      34  15  44 NW5       29.88F WCI  30
LIMON          FAIR      20  11  68 N6        29.87F WCI  12
MONUMENT HILL  FAIR      37  10  32 SW13      29.94S
CANON CITY     FAIR      45  12  26 NW16      29.91R
WALSENBURG     FAIR      43   5  21 SW13G20   29.94F
TRINIDAD       FAIR      41  11  29 SW15      29.94F
$$

COZ042>045-048>051-090-091-160400-
...NORTHEAST COLORADO...

CITY           SKY/WX    TMP DP  RH WIND       PRES   REMARKS
GREELEY ARPT   FAIR      30  13  49 W5        29.84F WCI  25
AKRON          FAIR      43  12  28 SW13      29.82F
BURLINGTON     FAIR      39  16  39 SW10      29.85F
WRAY           FAIR      39   7  26 W10       29.82S
YUMA           FAIR      32   9  37 SW10      29.82F WCI  24
STERLING       FAIR      32  14  47 W6        29.80F WCI  26
HOLYOKE        FAIR      34  14  44 W9        29.81S WCI  26
FORT MORGAN    FAIR      35  19  51 W5        29.83S WCI  31
$$

COZ086-089-092>099-160400-
...SOUTHEAST COLORADO...

CITY           SKY/WX    TMP DP  RH WIND       PRES   REMARKS
PUEBLO         FAIR      34  11  38 W6        29.87F WCI  29
LA JUNTA       FAIR      40  14  34 W5        29.87F
LAMAR          FAIR      28  16  60 W3        29.85F
SPRINGFIELD      N/A     32  16  51 SW13      29.90F WCI  22
$$




USA.gov is the U.S. government's official web portal to all federal, state and local government web resources and services.